Dr. Herbster Some Projects / Demos Assorted Weather Resources
Wx Aware ERAU Graphics Severe Wx Surface Wx Upper Air ERAU RADAR NWS RADAR Lightning Local Satellite US Satellite More Satellite External Links Wx University Last loaded:

Here are a few images/products that I either use regularly or have been developing


Surface Analysis from WPC

WPC SFC Analysis

Today's Forecast

NOAA Forecast Map
WxSTEM Camera

Animation

Text listing Whole Year listing
Wx Buoy ~20 nm East of Cape Canaveral
Wx Buoy ~120 nm East of Cape Canaveral
KDAB METAR
Data query at 26 May 2017 at 18:42Z
KDAB 261753Z 06008KT 10SM CLR 28/13 A3005 RMK AO2 SLP175 T02780128
   10278 20189 58006=
KDAB TAF
Data query at 26 May 2017 at 18:42Z

KDAB 261740Z 2618/2718 08007KT P6SM SKC
     FM270100 VRB02KT P6SM SKC
     FM271500 22005KT P6SM SKC=